This demonstration page uses our WeatherBlox Daily Observations layout. Learn more.

Left ArrowRight Arrow

31.84235, -102.49876

Hourly Observations for August 26, 2015

Temp ( °F °C ) Dew Point ( °F °C ) Humidity (%) Winds ( mph kmh ) Pressure ( in mb ) Visibility ( mi km ) Precip ( " mm )
12:53 am 00:53 Clear 77 25 62 16.7 60 60 S 10 17 30.04 1017 10 16 0.00 0.00
1:22 am 01:22 Clear 76 24.4 61 16.1 60 60 E 13 20 30.03 1017 10 16 0.00 0.00
1:53 am 01:53 Clear 74 23.3 62 16.7 67 67 E 10 17 30.05 1018 10 16 0.00 0.00
2:53 am 02:53 Clear 72 22.2 63 17.2 73 73 Calm 30.01 1016 10 16 0.00 0.00
3:53 am 03:53 Clear 72 22.2 63 17.2 73 73 E 6 9 30.01 1016 10 16 0.00 0.00
4:53 am 04:53 Clear 70 21.1 64 17.8 82 82 SE 3 6 30.01 1016 10 16 0.00 0.00
5:53 am 05:53 Clear 70 21.1 63 17.2 79 79 ESE 6 9 30.02 1017 10 16 0.00 0.00
6:53 am 06:53 Clear 70 21.1 63 17.2 79 79 E 6 9 30.05 1018 10 16 0.00 0.00
7:53 am 07:53 Sunny 70 21.1 63 17.2 79 79 ESE 7 11 30.08 1019 10 16 0.00 0.00
8:13 am 08:13 Mostly Sunny 71 21.7 62 16.7 73 73 ESE 7 11 30.06 1018 10 16 0.00 0.00
8:53 am 08:53 Sunny 75 23.9 62 16.7 64 64 SE 8 13 30.09 1019 10 16 0.00 0.00
9:53 am 09:53 Sunny 77 25 63 17.2 62 62 SE 10 17 30.10 1019 10 16 0.00 0.00
10:53 am 10:53 Sunny 81 27.2 63 17.2 54 54 S 8 13 30.09 1019 10 16 0.00 0.00
11:53 am 11:53 Sunny 85 29.4 62 16.7 46 46 SSE 7 11 30.10 1019 10 16 0.00 0.00
12:53 pm 12:53 Sunny 89 31.7 59 15 36 36 VRB 3 6 30.09 1019 10 16 0.00 0.00
1:53 pm 13:53 Sunny 92 33.3 58 14.4 32 32 undefined N/A 30.06 1018 10 16 0.00 0.00
2:53 pm 14:53 Partly Cloudy 94 34.4 55 12.8 27 27 SE 12 19 30.05 1018 10 16 0.00 0.00
3:53 pm 15:53 Mostly Cloudy 94 34.4 56 13.3 28 28 SE 12 19 30.02 1017 10 16 0.00 0.00
4:53 pm 16:53 Sunny 94 34.4 54 12.2 26 26 SSE 12 19 30.00 1016 10 16 0.00 0.00
5:53 pm 17:53 Sunny 94 34.4 53 11.7 25 25 E 12 19 29.98 1015 10 16 0.00 0.00
6:53 pm 18:53 Sunny 93 33.9 51 10.6 24 24 E 9 15 29.98 1015 10 16 0.00 0.00
7:53 pm 19:53 Sunny 91 32.8 54 12.2 28 28 E 9 15 29.98 1015 10 16 0.00 0.00
8:53 pm 20:53 Clear 88 31.1 57 13.9 35 35 ESE 12 19 30.00 1016 10 16 0.00 0.00
9:53 pm 21:53 Clear 85 29.4 57 13.9 39 39 SE 10 17 30.02 1017 10 16 0.00 0.00
10:53 pm 22:53 Clear 82 27.8 60 15.6 47 47 SSE 12 19 30.04 1017 10 16 0.00 0.00
11:53 pm 23:53 Clear 79 26.1 59 15 50 50 SSE 7 11 30.04 1017 10 16 0.00 0.00

Powered by AerisWeather